EHI
0 0 0 0 0 0 0 0 0 0 0 0 1 3 5 5 2 1 3 18 39 41 24 21 38 56 61 56 49 41 33 28 21 13 7 4 3 3 2 1 0 0 0 0 0 0 0 0 0
0 0 0 0 0 0 0 0 0 0 0 0 2 4 6 7 5 3 4 19 42 45 30 25 40 57 62 56 46 36 28 24 19 12 6 4 3 3 2 1 0 0 0 0 0 0 0 0 0
0 0 0 0 0 0 0 0 0 0 0 1 3 6 8 9 7 5 7 22 42 46 34 32 44 58 60 54 42 29 22 19 14 9 5 3 2 2 1 0 0 0 0 0 0 0 0 0 0
0 0 0 0 0 0 0 0 1 1 1 3 6 10 12 12 10 11 17 30 44 44 35 36 48 56 54 48 37 26 19 14 10 6 3 1 1 1 0 0 0 0 0 0 0 0 0 0 0
0 0 0 0 0 0 0 0 0 0 2 6 12 16 17 16 17 21 28 38 47 46 38 39 49 52 48 42 33 24 16 11 7 4 1 0 0 0 0 0 0 0 0 0 0 0 0 0 0
0 0 0 0 0 0 0 0 0 1 3 8 18 23 20 18 22 26 32 41 51 56 49 43 43 44 42 38 31 22 14 8 5 3 1 0 0 0 0 0 0 0 0 0 0 0 0 0 0
0 0 0 0 0 0 0 0 1 3 5 9 20 26 23 21 24 28 35 46 57 63 59 48 40 37 35 33 29 22 14 8 4 3 1 0 0 0 0 0 0 0 0 0 0 0 0 0 0
0 0 0 0 0 0 0 0 1 3 5 8 16 22 25 28 32 36 44 52 57 59 57 51 44 37 30 27 26 20 13 6 3 2 1 0 0 0 0 0 0 0 0 0 0 0 0 0 0
0 0 0 0 0 0 0 0 1 3 5 8 13 21 31 39 43 46 51 52 49 47 47 46 43 38 32 26 22 16 10 5 2 1 0 0 0 0 0 0 0 0 0 0 0 0 0 0 0
0 0 0 0 0 0 0 1 2 5 8 12 20 31 43 47 46 46 46 43 38 37 38 36 34 34 32 26 19 14 9 4 1 0 0 0 0 0 0 0 0 0 0 0 0 0 0 0 0
0 0 0 0 0 0 1 2 4 7 10 16 28 41 48 47 43 39 35 30 29 30 28 26 25 26 26 22 15 11 7 3 1 0 0 0 0 0 0 0 0 0 0 0 0 0 0 0 0
0 0 0 0 1 1 1 3 6 7 9 16 29 40 44 40 36 32 27 23 22 21 19 18 18 18 16 14 10 6 3 1 0 0 0 0 0 0 0 0 0 0 0 0 0 0 0 0 0
0 0 0 0 1 1 2 3 5 6 9 15 25 33 35 32 28 24 20 17 15 14 12 11 11 9 7 6 5 3 1 0 0 0 0 0 0 0 0 0 0 0 0 0 0 0 0 0 0
0 0 0 0 1 1 2 2 4 7 11 17 23 26 26 23 19 15 12 10 10 9 6 5 6 4 2 2 1 1 0 0 1 1 1 0 0 0 0 0 0 0 0 0 0 0 0 0 0
0 0 0 0 0 1 1 2 4 8 14 19 22 22 19 15 12 9 6 6 7 6 3 2 2 2 0 0 0 0 0 0 0 0 0 0 0 0 0 0 0 0 0 0 0 0 0 0 0
0 0 0 0 0 0 0 1 3 8 15 19 20 17 14 11 9 7 6 5 5 4 3 2 1 1 0 0 0 0 0 0 0 0 0 0 0 0 0 0 0 0 0 0 0 0 0 0 0
0 0 0 0 0 0 0 0 2 7 12 16 15 12 10 9 7 6 6 6 4 4 4 3 1 0 0 0 0 0 0 0 0 0 1 1 1 0 0 0 0 0 0 0 0 0 0 0 0
0 0 0 0 0 0 0 1 2 6 11 13 11 9 8 8 7 6 5 4 2 2 3 3 2 0 0 0 0 0 0 0 0 1 2 2 1 0 0 0 0 0 0 0 0 0 0 0 0
0 0 0 0 1 1 1 1 2 6 9 10 10 8 7 7 6 4 2 2 2 3 3 3 2 1 0 0 0 0 0 0 0 1 2 1 1 0 0 0 0 0 0 0 0 0 0 0 0
0 0 0 0 1 2 1 1 1 3 6 7 8 6 4 4 4 2 1 1 2 4 4 3 3 1 1 0 0 0 0 0 0 1 1 0 0 0 0 0 0 0 0 0 0 0 0 0 0
0 0 0 0 1 1 1 0 0 1 2 3 3 2 2 2 3 2 1 2 3 4 3 3 3 3 2 1 0 1 0 0 0 0 0 0 0 0 0 0 0 0 0 0 0 0 0 0 0
0 0 0 0 0 0 0 0 0 0 0 1 1 1 1 2 3 3 3 4 4 3 3 4 4 5 3 1 0 0 0 0 0 0 0 0 0 0 0 0 0 0 0 0 0 0 0 0 0
0 0 0 0 0 0 0 0 0 0 0 0 0 1 1 1 1 2 4 5 4 3 2 4 5 5 3 1 0 0 0 0 0 0 0 0 0 0 0 0 0 0 0 0 0 0 0 0 0
0 0 0 0 0 0 0 0 0 0 0 0 0 0 0 0 0 1 3 4 3 2 2 3 3 3 1 0 0 0 0 0 0 0 0 0 0 0 0 0 0 0 0 0 0 0 0 0 0
0 0 0 0 0 0 0 0 0 0 0 0 0 0 0 0 0 0 1 2 2 3 3 3 2 1 0 0 0 0 0 0 0 0 0 0 0 0 0 0 0 0 0 0 0 0 0 0 0
0 0 0 0 0 0 0 0 0 0 0 0 0 0 0 0 0 0 0 1 2 3 3 3 2 1 0 0 0 0 0 0 0 0 0 0 0 0 0 0 0 0 0 0 0 0 0 0 0
0 0 0 0 0 0 0 0 0 0 0 0 0 0 0 0 0 0 0 0 2 3 3 3 3 1 0 0 0 0 0 0 0 0 0 0 0 0 0 0 0 0 0 0 0 0 0 0 0
0 0 0 0 0 0 0 0 0 0 0 0 0 0 0 0 0 0 0 1 2 2 2 2 2 1 0 0 0 0 0 0 0 0 0 0 0 0 0 0 0 0 0 0 0 0 0 0 0
0 0 0 0 0 0 0 0 0 0 0 0 0 0 0 0 0 0 1 2 1 1 0 1 1 1 0 0 0 0 0 0 0 0 0 0 0 0 0 0 0 0 0 0 0 0 0 0 0
0 0 0 0 0 0 0 0 0 0 0 0 0 0 0 0 0 1 2 2 1 0 0 0 0 0 0 0 0 0 0 0 0 0 0 0 0 0 0 0 0 0 0 0 0 0 0 0 0
Wind_Speed
7 4 1 1 3 3 2 2 2 2 3 2 3 3 2 1 1 1 2 10 16 15 12 14 17 17 18 18 17 17 16 16 16 15 14 14 13 13 12 11 10 10 10 10 10 9 10 10 10
4 3 1 2 3 2 4 3 3 3 5 5 3 3 2 2 3 4 5 9 16 14 10 12 18 18 18 17 16 16 16 15 15 14 13 13 12 12 11 10 10 10 10 10 9 9 10 10 10
4 1 2 3 2 2 4 3 3 2 5 6 4 3 3 1 4 4 6 12 13 12 9 13 19 18 18 17 16 15 15 15 14 13 13 12 12 11 10 10 9 9 9 9 9 9 9 9 9
2 2 3 3 2 4 5 3 3 4 3 2 4 4 3 3 4 6 13 13 12 10 9 12 18 18 17 17 16 15 14 14 13 12 11 11 11 10 10 9 9 9 8 8 8 8 8 8 8
3 3 4 2 4 5 4 3 4 4 4 3 5 4 2 4 9 14 14 14 12 9 7 10 17 17 17 16 15 14 14 13 12 11 11 10 9 9 8 8 8 8 8 8 7 7 7 7 7
4 4 3 2 5 5 4 2 2 3 4 4 4 4 2 4 10 13 12 12 11 10 8 9 17 17 16 15 14 14 13 12 12 11 10 9 9 8 8 7 7 7 7 7 6 6 6 5 5
4 3 1 2 4 4 2 2 2 3 4 3 3 5 3 5 8 11 11 10 10 9 8 6 8 11 15 15 14 13 12 12 11 10 10 9 9 8 7 6 6 6 6 6 5 5 5 4 4
4 4 1 2 3 4 2 1 1 2 3 2 3 6 6 7 9 10 10 9 8 7 7 6 6 6 6 8 12 12 12 11 10 10 9 8 8 7 7 5 5 6 5 5 5 5 4 3 3
4 4 2 4 4 4 1 1 1 2 4 2 2 2 6 12 13 12 10 8 8 8 6 6 6 5 5 5 9 10 11 10 9 7 9 6 2 2 2 4 6 6 5 4 4 4 3 3 1
4 2 6 5 4 2 1 0 1 3 2 1 3 5 11 13 12 12 12 12 10 10 8 6 6 5 5 5 4 3 3 4 3 2 3 2 2 1 2 2 5 5 4 4 3 3 2 1 1
5 6 4 3 3 2 1 0 1 4 1 4 6 11 13 13 10 10 10 9 9 9 8 7 6 5 4 3 3 2 2 2 2 2 2 2 2 0 0 0 1 1 1 1 1 1 0 1 1
4 5 3 3 1 1 1 1 2 1 2 2 5 10 12 12 10 9 9 8 7 7 7 6 6 5 4 3 3 3 2 2 2 2 2 2 1 1 0 0 0 0 0 0 0 0 0 0 0
3 3 1 1 3 2 3 2 2 1 1 4 6 10 10 9 8 6 5 5 7 7 6 6 6 5 4 3 3 3 3 3 3 2 2 3 2 2 1 1 0 0 0 0 1 0 0 0 0
2 1 0 1 1 1 3 1 2 1 3 6 7 8 8 7 6 6 5 5 5 6 6 6 5 4 4 3 2 3 2 2 2 2 2 3 2 2 2 1 1 0 0 0 1 1 1 0 0
1 1 2 1 1 1 3 3 1 2 3 5 6 7 7 5 5 6 6 6 6 6 5 5 5 4 3 3 3 3 2 3 2 2 2 3 3 2 2 1 1 0 1 1 1 1 1 1 1
2 3 2 2 1 1 3 2 1 1 3 4 5 5 4 3 5 5 5 5 5 5 5 4 5 5 4 3 3 2 2 2 2 2 2 3 3 3 2 2 1 1 1 1 2 1 1 1 1
3 1 2 3 1 1 2 2 1 1 3 4 3 4 4 3 3 4 5 6 5 5 6 5 5 5 5 4 3 2 2 2 2 2 2 2 3 3 3 2 1 1 1 1 1 1 1 0 1
4 3 2 3 1 2 1 1 1 1 3 4 3 4 4 5 5 5 6 6 5 4 5 6 5 4 4 4 3 2 3 2 2 2 2 2 2 3 3 2 2 2 2 1 1 1 1 0 1
3 3 4 3 1 2 1 1 2 2 2 4 4 3 4 4 4 5 6 7 7 6 5 6 6 4 4 3 3 3 2 2 1 1 2 2 2 3 3 2 2 2 2 1 2 1 1 1 1
3 3 2 1 2 2 1 1 0 1 2 3 4 4 4 4 4 4 6 6 7 7 7 6 6 6 5 3 3 2 3 2 2 1 1 1 2 2 3 3 2 2 2 2 1 2 1 1 1
3 4 4 3 2 3 2 3 1 1 1 3 4 3 3 5 6 6 6 6 7 7 7 7 6 6 5 4 3 3 3 3 2 1 1 1 1 2 2 3 3 2 2 2 1 2 3 1 0
3 3 4 4 3 1 1 2 5 2 2 4 5 5 5 4 5 6 6 7 8 7 6 6 6 6 5 5 5 5 4 3 2 1 1 1 1 1 2 3 3 2 2 2 1 2 2 2 1
3 4 5 4 3 2 1 1 6 1 4 7 8 8 6 6 6 7 7 8 7 7 7 6 6 5 5 5 6 6 4 3 2 2 2 1 1 1 2 3 3 2 2 2 2 2 2 1 2
6 6 6 5 4 1 2 2 6 5 8 7 7 8 8 8 7 7 6 6 6 6 6 6 6 5 5 6 6 6 6 5 4 3 2 1 1 1 1 2 2 2 2 2 2 2 2 2 2
4 6 4 5 4 4 2 2 9 7 7 8 9 10 9 9 8 8 8 8 8 8 8 7 8 6 6 6 6 6 6 6 5 4 3 2 1 1 1 2 2 1 1 2 1 2 1 2 2
4 7 6 4 4 4 2 5 8 5 4 5 6 7 8 8 8 9 9 9 9 9 9 9 8 7 7 6 6 5 5 4 3 4 3 3 2 2 2 2 1 1 1 1 2 1 2 2 2
6 3 5 6 2 1 5 6 8 1 2 4 5 7 9 10 10 10 9 9 9 9 10 10 10 7 7 7 6 5 5 5 4 4 3 2 2 2 2 2 2 1 1 2 2 2 2 2 2
5 8 5 5 4 2 5 5 5 5 6 6 7 9 10 9 9 9 9 10 9 9 8 8 9 9 7 7 6 6 6 5 5 4 4 4 3 2 3 2 2 2 2 2 2 2 2 3 3
4 4 5 4 4 5 3 8 8 9 9 10 11 11 11 11 11 10 9 9 8 7 8 8 8 7 7 8 6 6 5 5 4 4 4 4 3 4 4 4 3 3 3 3 3 4 3 4 4
4 7 8 5 4 4 3 10 5 6 7 8 10 10 10 10 10 9 8 8 8 9 9 9 9 9 8 8 7 6 6 5 5 5 5 5 5 4 5 4 4 4 4 4 4 5 5 5 5
Wind_Direction
149 138 130 80 53 45 287 240 215 177 153 161 140 129 137 126 213 253 96 137 134 141 149 149 146 142 137 135 133 132 131 130 131 131 132 133 132 131 130 128 126 124 121 118 115 113 111 111 112
135 146 79 62 76 27 287 225 207 191 166 146 117 89 84 93 87 101 124 137 137 141 145 148 148 145 141 139 138 136 135 135 135 136 137 137 135 134 133 131 129 127 124 121 119 116 113 113 113
152 161 85 71 97 198 262 227 196 161 151 148 134 97 107 115 126 130 140 138 134 138 142 153 150 148 145 143 143 142 141 141 141 142 142 141 140 140 138 136 133 129 127 124 121 119 116 115 115
126 53 55 64 270 242 244 247 184 151 138 137 130 102 86 32 125 132 136 138 135 136 143 155 152 152 150 148 148 148 147 147 147 147 147 146 146 145 143 142 138 133 130 127 124 122 119 117 116
68 75 55 9 278 269 269 257 175 156 149 135 127 114 64 30 111 130 138 141 140 137 144 156 156 155 153 152 152 153 152 152 152 153 154 153 151 151 151 148 143 140 137 134 131 127 122 120 118
62 66 73 305 285 281 287 323 136 131 124 122 118 110 75 104 128 137 139 138 142 143 145 156 160 157 156 156 157 157 157 157 158 160 161 161 160 162 163 158 155 153 149 145 141 136 130 124 117
106 100 163 248 278 290 301 8 111 134 124 134 129 115 119 140 143 137 137 137 138 138 138 145 155 158 159 159 160 160 161 163 164 166 168 170 169 170 173 173 171 164 160 154 152 149 144 136 127
133 104 293 266 251 270 306 30 31 93 110 82 104 146 162 162 145 134 133 136 136 134 136 134 136 139 146 155 162 164 165 166 168 171 174 177 177 178 183 181 186 179 175 173 172 170 162 153 143
109 76 250 237 224 252 312 53 50 70 97 82 72 139 143 142 143 139 136 137 145 151 140 129 126 128 133 144 165 165 168 170 171 175 178 174 157 158 180 197 202 197 195 196 196 196 185 170 150
114 163 235 230 212 208 200 153 145 104 96 105 104 109 131 142 150 152 155 157 162 160 155 141 134 134 137 154 143 136 142 146 145 136 149 124 117 153 191 237 224 214 212 221 221 220 202 141 70
170 207 243 259 230 184 166 355 60 129 174 207 170 150 147 151 157 162 163 162 162 160 160 153 145 138 139 130 130 119 112 120 128 135 129 123 121 105 20 20 284 261 228 268 279 278 77 121 129
187 247 241 273 304 113 151 133 73 100 215 160 141 146 153 157 166 170 164 159 146 148 152 150 147 143 145 137 139 135 131 139 144 155 150 143 147 153 135 75 302 282 116 181 243 294 11 103 104
210 255 312 43 53 77 95 95 104 77 89 114 129 139 150 161 166 169 157 145 144 149 150 147 142 144 147 141 148 149 154 161 160 164 172 161 158 164 145 120 101 94 96 144 161 175 147 97 87
222 179 56 8 68 77 111 85 95 133 112 127 133 142 147 154 158 147 143 145 146 150 150 145 143 148 147 148 152 151 155 157 155 164 173 157 153 152 144 137 113 81 109 154 167 160 129 100 93
79 65 1 10 73 135 101 26 47 145 124 125 134 142 140 142 136 145 152 151 152 147 144 144 142 136 146 157 164 155 156 149 144 147 149 146 148 147 139 133 122 121 109 110 98 82 82 84 65
51 48 338 305 68 151 121 253 279 157 129 123 136 144 139 137 140 149 147 144 151 144 150 155 147 143 153 155 154 150 148 142 133 129 135 150 149 140 131 128 125 108 100 103 106 96 91 49 28
26 348 287 304 11 102 138 233 267 162 134 129 134 141 151 155 149 151 155 159 159 158 155 144 131 144 145 140 130 125 122 118 120 124 135 149 145 139 133 131 127 112 100 92 104 91 110 96 305
265 266 273 283 310 63 112 215 151 198 151 155 161 167 167 182 187 166 166 159 151 156 148 133 125 137 130 115 101 95 92 90 100 124 145 147 145 146 137 134 130 123 114 104 100 98 86 82 303
222 225 257 277 327 66 61 189 195 190 173 178 182 186 189 194 185 163 162 155 150 148 146 144 148 158 141 133 137 135 134 126 114 131 143 145 143 142 141 132 126 129 131 143 144 128 95 28 10
206 221 239 326 35 73 39 342 219 189 204 209 201 199 195 176 163 166 156 154 155 156 159 159 165 163 161 154 147 136 128 119 108 81 83 105 138 148 150 147 147 145 130 117 120 124 116 50 56
215 198 199 175 65 47 41 342 293 224 189 219 218 202 193 186 179 173 165 163 156 163 169 167 165 159 155 145 123 101 81 70 70 63 55 35 100 142 141 149 145 145 141 145 149 144 145 154 56
241 225 157 135 111 332 63 296 281 244 245 230 222 210 207 195 180 174 172 167 171 175 167 159 160 155 152 152 147 145 146 152 170 153 127 69 64 107 132 133 132 133 132 139 151 137 142 145 166
167 80 92 97 109 47 21 169 282 259 240 235 219 207 203 195 187 185 183 177 175 167 162 157 152 154 154 152 149 142 137 141 127 111 109 84 44 63 112 127 128 132 131 136 129 127 136 150 166
120 74 61 53 65 355 246 181 273 227 219 220 207 200 195 193 189 188 178 164 166 160 158 157 158 161 155 151 149 150 150 147 141 139 138 118 54 41 79 118 128 138 142 150 156 150 152 163 169
94 91 35 1 7 265 251 219 252 244 221 206 196 194 190 188 183 183 177 173 174 172 171 168 166 165 161 155 153 157 157 158 163 166 169 167 162 164 171 133 141 151 170 172 165 168 185 184 183
167 140 155 203 236 280 299 247 257 261 232 205 189 182 179 183 186 189 188 184 183 181 177 173 172 169 167 164 163 160 160 160 166 173 175 182 189 198 195 170 174 187 189 184 173 186 212 200 207
140 165 154 129 138 295 283 284 299 252 195 187 187 182 189 190 191 193 192 190 187 184 183 179 175 173 173 171 164 165 169 173 178 180 181 187 194 200 196 196 201 216 217 212 192 213 228 217 225
134 139 105 120 145 261 295 279 252 234 215 201 195 199 204 196 195 195 193 193 190 187 180 174 175 178 175 171 174 177 180 184 180 175 188 195 201 201 196 210 219 228 232 225 213 231 234 228 236
125 115 113 117 149 157 253 272 230 211 202 197 203 203 201 197 198 198 196 190 183 176 173 176 177 174 176 178 178 173 181 183 178 187 202 201 204 204 209 215 222 232 239 233 225 238 239 240 249
162 163 148 154 201 172 184 267 271 220 208 198 204 204 201 199 198 196 190 177 176 181 182 182 181 184 185 178 175 181 182 179 186 205 212 207 212 216 217 219 226 236 238 232 230 244 242 240 249